Methuen, Massachusetts, United States (01844)
Lat: 42.73N, Lon: 71.19W
Wx Zone: MAZ006
Local Info
Past Weather Observations for Monday, September 29, 2014

NOTE: This archive is for the closest National Weather Service station to Methuen. Information may differ from the station used for current weather conditions.

Click here for Long-term Archive

Time Weather Temperature Dewpoint Humidity Pressure Winds Precip Visibility
23:54
Overcast
55°F / 13°C 54°F / 12°C 94% 30.04 in
(1017 mb)
NE 9.2 mph
(NE 15 kph)
- 7SM
22:54
Overcast
Fog And Mist
55°F / 13°C 54°F / 12°C 94% 30.06 in
(1018 mb)
NE 10.4 mph
(NE 17 kph)
0.00 in
(0.00 mm)
5SM
22:42
Overcast
Fog And Mist
55°F / 13°C 54°F / 12°C 94% 30.06 in
(1018 mb)
NE 12.7 mph
(NE 20 kph)
0.00 in
(0.00 mm)
3SM
22:20
Overcast
Fog And Mist
55°F / 13°C 55°F / 13°C 100% 30.06 in
(1018 mb)
NE 9.2 mph
(NE 15 kph)
0.00 in
(0.00 mm)
2 1/2SM
21:54
Overcast
Fog And Mist
55°F / 13°C 55°F / 13°C 100% 30.06 in
(1018 mb)
Variable 3.5 mph
(Variable 6 kph)
0.01 in
(0.25 mm)
3SM
21:11
Overcast
Light Rain
55°F / 13°C 55°F / 13°C 100% 30.06 in
(1018 mb)
NE 12.7 mph
(NE 20 kph)
0.00 in
(0.00 mm)
3SM
21:00
Overcast
Fog And Mist
55°F / 13°C 55°F / 13°C 100% 30.06 in
(1018 mb)
NE 10.4 mph
(NE 17 kph)
- 2 1/2SM
20:54
Overcast
Fog And Mist
55°F / 13°C 55°F / 13°C 100% 30.06 in
(1018 mb)
NE 8.1 mph
(NE 13 kph)
- 3SM
19:54
Overcast
Fog And Mist
57°F / 14°C 55°F / 13°C 94% 30.06 in
(1018 mb)
ENE 11.5 mph
(ENE 19 kph)
- 3SM
19:40
Overcast
Fog And Mist
57°F / 14°C 55°F / 13°C 94% 30.06 in
(1018 mb)
NE 10.4 mph
(NE 17 kph)
- 3SM
18:54
Overcast
Fog And Mist
57°F / 14°C 55°F / 13°C 94% 30.06 in
(1018 mb)
NE 10.4 mph
(NE 17 kph)
- 5SM
17:54
Overcast
57°F / 14°C 55°F / 13°C 94% 30.04 in
(1017 mb)
NE 12.7 mph
(NE 20 kph)
- 9SM
16:54
Overcast
Fog And Mist
57°F / 14°C 55°F / 13°C 94% 30.04 in
(1017 mb)
NE 18.4 mph
(NE 30 kph)
- 5SM
16:44
Overcast
Fog And Mist
59°F / 15°C 55°F / 13°C 88% 30.04 in
(1017 mb)
ENE 12.7 mph
(ENE 20 kph)
- 5SM
16:11
Overcast
Fog And Mist
59°F / 15°C 57°F / 14°C 94% 30.04 in
(1017 mb)
NE 11.5 mph
(NE 19 kph)
- 3SM
15:54
Overcast
Fog And Mist
61°F / 16°C 57°F / 14°C 88% 30.04 in
(1017 mb)
ENE 10.4 mph
(ENE 17 kph)
- 5SM
15:11
Overcast
63°F / 17°C 57°F / 14°C 83% 30.01 in
(1016 mb)
ENE 15 mph
(ENE 24 kph)
- 9SM
14:54
Mostly Cloudy
64°F / 18°C 57°F / 14°C 78% 30.01 in
(1016 mb)
ENE 13.8 mph
(ENE 22 kph)
- 10SM
14:42
Mostly Cloudy
66°F / 19°C 57°F / 14°C 73% 30.01 in
(1016 mb)
ENE 10.4 mph
(ENE 17 kph)
- 10SM
13:54
Clear
70°F / 21°C 57°F / 14°C 64% 29.98 in
(1015 mb)
ENE 15 mph
(ENE 24 kph)
- 10SM
12:54
Clear
73°F / 23°C 55°F / 13°C 53% 30.01 in
(1016 mb)
E 10.4 mph
(E 17 kph)
- 10SM
11:54
Clear
73°F / 23°C 55°F / 13°C 53% 30.01 in
(1016 mb)
E 11.5 mph
(E 19 kph)
- 10SM
10:54
Clear
73°F / 23°C 57°F / 14°C 57% 30.01 in
(1016 mb)
ENE 6.9 mph
(ENE 11 kph)
- 10SM
09:54
Clear
70°F / 21°C 61°F / 16°C 73% 29.98 in
(1015 mb)
ENE 6.9 mph
(ENE 11 kph)
- 10SM
08:54
Clear
66°F / 19°C 61°F / 16°C 83% 30.01 in
(1016 mb)
Calm - 10SM
07:54
Clear
64°F / 18°C 61°F / 16°C 88% 30.01 in
(1016 mb)
Calm - 10SM
06:54
Clear
63°F / 17°C 59°F / 15°C 88% 30.01 in
(1016 mb)
Calm - 10SM
05:54
Clear
59°F / 15°C 57°F / 14°C 94% 29.98 in
(1015 mb)
Calm - 10SM
04:54
Clear
61°F / 16°C 57°F / 14°C 88% 29.98 in
(1015 mb)
Calm - 10SM
03:54
Clear
61°F / 16°C 57°F / 14°C 88% 29.98 in
(1015 mb)
SW 5.8 mph
(SW 9 kph)
- 10SM
02:54
Clear
63°F / 17°C 61°F / 16°C 94% 29.98 in
(1015 mb)
SSE 5.8 mph
(SSE 9 kph)
- 10SM
01:54
Clear
63°F / 17°C 61°F / 16°C 94% 29.98 in
(1015 mb)
SSE 4.6 mph
(SSE 7 kph)
- 10SM
00:54
Clear
63°F / 17°C 61°F / 16°C 94% 29.98 in
(1015 mb)
S 4.6 mph
(S 7 kph)
- 10SM
Time Weather Temperature Dewpoint Humidity Pressure Winds Precip Visibility


Weather for websites

WeatherForYou.com, LLC is not responsible for any damages or problems caused by this service. Current weather conditions are obtained from the closest station including government and personal stations which may have varying degrees of accuracy. Weather forecasts are derived from the NOAA NDFD. Like all things, this site belongs to Jesus Christ... He just trusts me to maintain it. If you have any questions or comments email webmaster@weatherforyou.com

Copyright © 2014, WeatherForYou.com LLC. All rights reserved.